Time,TemperatureF,DewpointF,PressureIn,WindDirection,WindDirectionDegrees,WindSpeedMPH,WindSpeedGustMPH,Humidity,HourlyPrecipIn,Conditions,Clouds,dailyrainin,SoftwareType,DateUTC
2013-01-17 00:01:00,32.3,28.9,29.59,East,90,1.1,2.4,87,0.00,,,0.00,WUHU216HW,2013-01-17 05:01:00,
2013-01-17 00:02:00,32.3,28.9,29.59,East,90,2.2,2.2,87,0.00,,,0.00,WUHU216HW,2013-01-17 05:02:00,
2013-01-17 00:03:00,32.3,28.9,29.59,East,90,2.2,2.2,87,0.00,,,0.00,WUHU216HW,2013-01-17 05:03:00,
2013-01-17 00:08:00,32.5,29.1,29.59,East,90,2.2,2.2,87,0.00,,,0.00,WUHU216HW,2013-01-17 05:08:00,
2013-01-17 00:13:00,32.5,29.1,29.60,East,90,0.0,2.2,87,0.00,,,0.00,WUHU216HW,2013-01-17 05:13:00,
2013-01-17 00:18:00,32.5,29.1,29.60,East,90,0.0,2.2,87,0.00,,,0.00,WUHU216HW,2013-01-17 05:18:00,
2013-01-17 00:23:00,32.5,29.1,29.60,East,90,3.1,3.1,87,0.00,,,0.00,WUHU216HW,2013-01-17 05:23:00,
2013-01-17 00:28:00,32.5,29.1,29.60,East,90,1.5,3.1,87,0.00,,,0.00,WUHU216HW,2013-01-17 05:28:00,
2013-01-17 00:33:00,32.5,29.1,29.61,East,90,0.0,3.1,87,0.00,,,0.00,WUHU216HW,2013-01-17 05:33:00,
2013-01-17 00:38:00,32.5,29.1,29.60,East,90,0.0,1.5,87,0.00,,,0.00,WUHU216HW,2013-01-17 05:38:00,
2013-01-17 00:43:00,32.5,29.1,29.60,East,90,0.0,1.1,87,0.00,,,0.00,WUHU216HW,2013-01-17 05:43:00,
2013-01-17 00:48:00,32.3,28.9,29.60,East,90,0.0,2.4,87,0.00,,,0.00,WUHU216HW,2013-01-17 05:48:00,
2013-01-17 00:53:00,32.1,28.4,29.60,East,90,0.0,2.4,86,0.00,,,0.00,WUHU216HW,2013-01-17 05:53:00,
2013-01-17 00:58:00,32.1,28.4,29.61,East,90,0.0,0.0,86,0.00,,,0.00,WUHU216HW,2013-01-17 05:58:00,
2013-01-17 01:03:00,32.1,28.4,29.61,East,90,0.0,0.0,86,0.00,,,0.00,WUHU216HW,2013-01-17 06:03:00,
2013-01-17 01:10:00,32.1,28.4,29.60,East,90,0.0,0.0,86,0.00,,,0.00,WUHU216HW,2013-01-17 06:10:00,
2013-01-17 01:15:00,31.8,28.1,29.61,East,90,0.0,0.0,86,0.00,,,0.00,WUHU216HW,2013-01-17 06:15:00,
2013-01-17 01:20:00,31.6,27.9,29.62,East,90,0.0,0.0,86,0.00,,,0.00,WUHU216HW,2013-01-17 06:20:00,
2013-01-17 01:25:00,31.6,27.9,29.62,East,90,0.0,0.0,86,0.00,,,0.00,WUHU216HW,2013-01-17 06:25:00,
2013-01-17 01:30:00,31.4,27.7,29.61,East,90,0.0,0.0,86,0.00,,,0.00,WUHU216HW,2013-01-17 06:30:00,
2013-01-17 01:35:00,31.2,27.6,29.61,East,90,0.0,0.0,86,0.00,,,0.00,WUHU216HW,2013-01-17 06:35:00,
2013-01-17 01:40:00,31.2,27.6,29.61,East,90,0.0,0.0,86,0.00,,,0.00,WUHU216HW,2013-01-17 06:40:00,
2013-01-17 01:45:00,31.2,27.6,29.61,East,90,0.0,0.0,86,0.00,,,0.00,WUHU216HW,2013-01-17 06:45:00,
2013-01-17 01:50:00,31.2,27.6,29.62,East,90,0.0,0.0,86,0.00,,,0.00,WUHU216HW,2013-01-17 06:50:00,
2013-01-17 01:55:00,31.1,27.4,29.62,East,90,0.0,0.0,86,0.00,,,0.00,WUHU216HW,2013-01-17 06:55:00,
2013-01-17 02:00:00,30.9,27.2,29.62,East,90,0.0,0.0,86,0.00,,,0.00,WUHU216HW,2013-01-17 07:00:00,
2013-01-17 02:05:00,30.7,27.0,29.61,East,90,0.0,0.0,86,0.00,,,0.00,WUHU216HW,2013-01-17 07:05:00,
2013-01-17 02:10:00,30.9,27.2,29.61,East,90,0.0,0.0,86,0.00,,,0.00,WUHU216HW,2013-01-17 07:10:00,
2013-01-17 02:15:00,30.7,27.0,29.61,East,90,0.0,0.0,86,0.00,,,0.00,WUHU216HW,2013-01-17 07:15:00,
2013-01-17 02:20:00,30.7,27.0,29.61,East,90,0.0,0.0,86,0.00,,,0.00,WUHU216HW,2013-01-17 07:20:00,
2013-01-17 02:25:00,30.7,27.0,29.62,East,90,0.0,0.0,86,0.00,,,0.00,WUHU216HW,2013-01-17 07:25:00,
2013-01-17 02:30:00,30.7,27.3,29.62,East,90,0.0,0.0,87,0.00,,,0.00,WUHU216HW,2013-01-17 07:30:00,
2013-01-17 02:36:00,30.7,27.3,29.61,East,90,0.0,0.0,87,0.00,,,0.00,WUHU216HW,2013-01-17 07:36:00,
2013-01-17 02:41:00,30.5,27.1,29.61,East,90,0.0,0.0,87,0.00,,,0.00,WUHU216HW,2013-01-17 07:41:00,
2013-01-17 02:46:00,30.5,27.1,29.61,East,90,0.0,0.0,87,0.00,,,0.00,WUHU216HW,2013-01-17 07:46:00,
2013-01-17 02:51:00,30.5,27.1,29.61,East,90,0.0,0.0,87,0.00,,,0.00,WUHU216HW,2013-01-17 07:51:00,
2013-01-17 02:56:00,30.5,27.1,29.61,East,90,0.0,0.0,87,0.00,,,0.00,WUHU216HW,2013-01-17 07:56:00,
2013-01-17 03:01:00,30.3,26.9,29.61,East,90,0.0,0.0,87,0.00,,,0.00,WUHU216HW,2013-01-17 08:01:00,
2013-01-17 03:06:00,30.2,26.8,29.60,East,90,0.0,0.0,87,0.00,,,0.00,WUHU216HW,2013-01-17 08:06:00,
2013-01-17 03:11:00,30.2,26.8,29.60,East,90,0.0,0.0,87,0.00,,,0.00,WUHU216HW,2013-01-17 08:11:00,
2013-01-17 03:16:00,30.0,26.6,29.60,East,90,0.0,0.0,87,0.00,,,0.00,WUHU216HW,2013-01-17 08:16:00,
2013-01-17 03:21:00,30.0,26.6,29.61,East,90,0.0,0.0,87,0.00,,,0.00,WUHU216HW,2013-01-17 08:21:00,
2013-01-17 03:26:00,29.8,26.4,29.61,East,90,0.0,0.0,87,0.00,,,0.00,WUHU216HW,2013-01-17 08:26:00,
2013-01-17 03:31:00,29.8,26.1,29.61,East,90,0.0,0.0,86,0.00,,,0.00,WUHU216HW,2013-01-17 08:31:00,
2013-01-17 03:36:00,29.6,25.9,29.61,East,90,0.0,0.0,86,0.00,,,0.00,WUHU216HW,2013-01-17 08:36:00,
2013-01-17 03:41:00,29.3,25.6,29.61,East,90,0.0,0.0,86,0.00,,,0.00,WUHU216HW,2013-01-17 08:41:00,
2013-01-17 03:46:00,29.1,25.4,29.61,East,90,0.0,0.0,86,0.00,,,0.00,WUHU216HW,2013-01-17 08:46:00,
2013-01-17 03:51:00,28.9,25.2,29.61,East,90,0.0,0.0,86,0.00,,,0.00,WUHU216HW,2013-01-17 08:51:00,
2013-01-17 03:57:00,28.7,25.0,29.61,East,90,0.0,0.0,86,0.00,,,0.00,WUHU216HW,2013-01-17 08:57:00,
2013-01-17 04:02:00,28.5,24.9,29.61,East,90,0.0,0.0,86,0.00,,,0.00,WUHU216HW,2013-01-17 09:02:00,
2013-01-17 04:07:00,28.4,25.0,29.61,East,90,0.0,0.0,87,0.00,,,0.00,WUHU216HW,2013-01-17 09:07:00,
2013-01-17 04:12:00,28.2,24.8,29.61,East,90,0.0,0.0,87,0.00,,,0.00,WUHU216HW,2013-01-17 09:12:00,
2013-01-17 04:17:00,28.2,24.8,29.61,East,90,0.0,0.0,87,0.00,,,0.00,WUHU216HW,2013-01-17 09:17:00,
2013-01-17 04:22:00,28.0,24.6,29.60,East,90,0.0,0.0,87,0.00,,,0.00,WUHU216HW,2013-01-17 09:22:00,
2013-01-17 04:27:00,27.8,24.4,29.60,East,90,0.0,0.0,87,0.00,,,0.00,WUHU216HW,2013-01-17 09:27:00,
2013-01-17 04:32:00,27.6,24.2,29.60,East,90,0.0,0.0,87,0.00,,,0.00,WUHU216HW,2013-01-17 09:32:00,
2013-01-17 04:37:00,28.0,24.6,29.60,East,90,0.0,0.0,87,0.00,,,0.00,WUHU216HW,2013-01-17 09:37:00,
2013-01-17 04:42:00,28.0,24.6,29.60,East,90,0.0,0.0,87,0.00,,,0.00,WUHU216HW,2013-01-17 09:42:00,
2013-01-17 04:47:00,28.0,24.6,29.60,East,90,0.0,0.0,87,0.00,,,0.00,WUHU216HW,2013-01-17 09:47:00,
2013-01-17 04:52:00,28.2,24.8,29.60,East,90,0.0,0.0,87,0.00,,,0.00,WUHU216HW,2013-01-17 09:52:00,
2013-01-17 04:57:00,28.2,24.8,29.60,East,90,0.0,0.0,87,0.00,,,0.00,WUHU216HW,2013-01-17 09:57:00,
2013-01-17 05:02:00,28.0,24.6,29.60,East,90,0.0,0.0,87,0.00,,,0.00,WUHU216HW,2013-01-17 10:02:00,
2013-01-17 05:07:00,28.0,24.6,29.61,East,90,0.0,0.0,87,0.00,,,0.00,WUHU216HW,2013-01-17 10:07:00,
2013-01-17 05:12:00,27.6,24.2,29.60,East,90,0.0,0.0,87,0.00,,,0.00,WUHU216HW,2013-01-17 10:12:00,
2013-01-17 05:18:00,27.6,24.2,29.61,East,90,0.0,0.0,87,0.00,,,0.00,WUHU216HW,2013-01-17 10:18:00,
2013-01-17 05:23:00,27.6,24.2,29.61,East,90,0.0,0.0,87,0.00,,,0.00,WUHU216HW,2013-01-17 10:23:00,
2013-01-17 05:28:00,27.6,24.2,29.61,East,90,0.0,0.0,87,0.00,,,0.00,WUHU216HW,2013-01-17 10:28:00,
2013-01-17 05:33:00,27.6,24.2,29.61,East,90,0.0,0.0,87,0.00,,,0.00,WUHU216HW,2013-01-17 10:33:00,
2013-01-17 05:38:00,28.0,24.6,29.61,East,90,0.0,0.0,87,0.00,,,0.00,WUHU216HW,2013-01-17 10:38:00,
2013-01-17 05:43:00,28.0,24.6,29.62,East,90,0.0,0.0,87,0.00,,,0.00,WUHU216HW,2013-01-17 10:43:00,
2013-01-17 05:48:00,28.0,24.6,29.62,East,90,0.0,0.0,87,0.00,,,0.00,WUHU216HW,2013-01-17 10:48:00,
2013-01-17 05:53:00,28.2,24.8,29.62,East,90,0.0,0.0,87,0.00,,,0.00,WUHU216HW,2013-01-17 10:53:00,
2013-01-17 05:58:00,28.2,24.8,29.62,East,90,0.0,0.0,87,0.00,,,0.00,WUHU216HW,2013-01-17 10:58:00,
2013-01-17 06:03:00,28.2,24.8,29.63,East,90,0.0,0.0,87,0.00,,,0.00,WUHU216HW,2013-01-17 11:03:00,
2013-01-17 06:08:00,28.2,24.8,29.63,East,90,0.0,0.0,87,0.00,,,0.00,WUHU216HW,2013-01-17 11:08:00,
2013-01-17 06:13:00,28.2,24.8,29.63,East,90,0.0,0.6,87,0.00,,,0.00,WUHU216HW,2013-01-17 11:13:00,
2013-01-17 06:18:00,28.5,25.1,29.62,East,90,0.0,0.6,87,0.00,,,0.00,WUHU216HW,2013-01-17 11:18:00,
2013-01-17 06:23:00,28.5,25.1,29.63,East,90,0.0,0.0,87,0.00,,,0.00,WUHU216HW,2013-01-17 11:23:00,
2013-01-17 06:28:00,28.7,25.3,29.63,East,90,0.0,0.0,87,0.00,,,0.00,WUHU216HW,2013-01-17 11:28:00,
2013-01-17 06:34:00,28.7,25.3,29.63,East,90,0.0,0.0,87,0.00,,,0.00,WUHU216HW,2013-01-17 11:34:00,
2013-01-17 06:39:00,28.9,25.5,29.63,East,90,0.6,0.6,87,0.00,,,0.00,WUHU216HW,2013-01-17 11:39:00,
2013-01-17 06:44:00,29.3,25.9,29.64,East,90,1.3,1.3,87,0.00,,,0.00,WUHU216HW,2013-01-17 11:44:00,
2013-01-17 06:49:00,29.3,25.9,29.64,East,90,0.0,1.3,87,0.00,,,0.00,WUHU216HW,2013-01-17 11:49:00,
2013-01-17 06:54:00,29.3,25.6,29.64,East,90,0.0,1.3,86,0.00,,,0.00,WUHU216HW,2013-01-17 11:54:00,
2013-01-17 06:59:00,29.4,25.8,29.65,East,90,0.0,0.0,86,0.00,,,0.00,WUHU216HW,2013-01-17 11:59:00,
2013-01-17 07:04:00,29.6,25.9,29.65,East,90,0.0,0.0,86,0.00,,,0.00,WUHU216HW,2013-01-17 12:04:00,
2013-01-17 07:09:00,29.8,26.1,29.65,East,90,0.0,0.0,86,0.00,,,0.00,WUHU216HW,2013-01-17 12:09:00,
2013-01-17 07:14:00,30.0,26.0,29.66,East,90,0.0,0.0,85,0.00,,,0.00,WUHU216HW,2013-01-17 12:14:00,
2013-01-17 07:19:00,30.0,26.3,29.67,East,90,0.0,0.0,86,0.00,,,0.00,WUHU216HW,2013-01-17 12:19:00,
2013-01-17 07:24:00,30.3,26.4,29.67,East,90,0.0,0.0,85,0.00,,,0.00,WUHU216HW,2013-01-17 12:24:00,
2013-01-17 07:29:00,30.3,26.4,29.67,East,90,0.0,0.0,85,0.00,,,0.00,WUHU216HW,2013-01-17 12:29:00,
2013-01-17 07:34:00,30.3,26.1,29.67,East,90,0.0,0.0,84,0.00,,,0.00,WUHU216HW,2013-01-17 12:34:00,
2013-01-17 07:39:00,30.5,26.3,29.67,East,90,0.0,0.0,84,0.00,,,0.00,WUHU216HW,2013-01-17 12:39:00,
2013-01-17 07:44:00,30.7,26.4,29.68,East,90,0.0,0.0,84,0.00,,,0.00,WUHU216HW,2013-01-17 12:44:00,
2013-01-17 07:49:00,30.9,26.6,29.67,East,90,0.0,0.0,84,0.00,,,0.00,WUHU216HW,2013-01-17 12:49:00,
2013-01-17 07:55:00,30.9,26.3,29.67,East,90,5.1,5.1,83,0.00,,,0.00,WUHU216HW,2013-01-17 12:55:00,
2013-01-17 08:00:00,31.2,26.7,29.68,East,90,1.5,5.1,83,0.00,,,0.00,WUHU216HW,2013-01-17 13:00:00,
2013-01-17 08:05:00,31.2,26.7,29.68,East,90,0.0,5.1,83,0.00,,,0.00,WUHU216HW,2013-01-17 13:05:00,
2013-01-17 08:10:00,31.6,27.1,29.68,East,90,0.0,3.8,83,0.00,,,0.00,WUHU216HW,2013-01-17 13:10:00,
2013-01-17 08:15:00,31.8,26.9,29.69,East,90,0.0,3.8,82,0.00,,,0.00,WUHU216HW,2013-01-17 13:15:00,
2013-01-17 08:20:00,31.8,26.9,29.69,East,90,1.5,2.6,82,0.00,,,0.00,WUHU216HW,2013-01-17 13:20:00,
2013-01-17 08:25:00,32.1,27.3,29.68,East,90,0.0,3.8,82,0.00,,,0.00,WUHU216HW,2013-01-17 13:25:00,
2013-01-17 08:30:00,32.3,27.5,29.69,East,90,6.0,6.0,82,0.00,,,0.00,WUHU216HW,2013-01-17 13:30:00,
2013-01-17 08:35:00,32.7,27.5,29.68,East,90,0.0,6.0,81,0.00,,,0.00,WUHU216HW,2013-01-17 13:35:00,
2013-01-17 08:40:00,32.9,27.6,29.69,East,90,0.0,5.8,81,0.00,,,0.00,WUHU216HW,2013-01-17 13:40:00,
2013-01-17 08:45:00,32.9,27.6,29.69,East,90,0.0,5.8,81,0.00,,,0.00,WUHU216HW,2013-01-17 13:45:00,
2013-01-17 08:50:00,32.9,27.6,29.70,East,90,1.3,3.8,81,0.00,,,0.00,WUHU216HW,2013-01-17 13:50:00,
2013-01-17 08:55:00,33.0,27.5,29.70,East,90,0.0,1.3,80,0.00,,,0.00,WUHU216HW,2013-01-17 13:55:00,
2013-01-17 09:00:00,33.0,27.5,29.70,East,90,0.0,4.0,80,0.00,,,0.00,WUHU216HW,2013-01-17 14:00:00,
2013-01-17 09:05:00,33.2,27.7,29.70,East,90,5.3,5.3,80,0.00,,,0.00,WUHU216HW,2013-01-17 14:05:00,
2013-01-17 09:10:00,33.2,27.7,29.70,East,90,0.0,5.3,80,0.00,,,0.00,WUHU216HW,2013-01-17 14:10:00,
2013-01-17 09:15:00,33.2,27.5,29.71,East,90,0.0,5.3,79,0.00,,,0.00,WUHU216HW,2013-01-17 14:15:00,
2013-01-17 09:20:00,33.4,27.5,29.71,East,90,0.0,2.2,79,0.00,,,0.00,WUHU216HW,2013-01-17 14:20:00,
2013-01-17 09:25:00,33.6,27.7,29.72,East,90,0.0,2.2,79,0.00,,,0.00,WUHU216HW,2013-01-17 14:25:00,
2013-01-17 09:30:00,33.8,28.2,29.72,East,90,0.0,1.3,80,0.00,,,0.00,WUHU216HW,2013-01-17 14:30:00,
2013-01-17 09:35:00,34.3,28.4,29.72,East,90,0.0,1.7,79,0.00,,,0.00,WUHU216HW,2013-01-17 14:35:00,
2013-01-17 09:40:00,34.8,28.9,29.72,East,90,0.0,1.7,79,0.00,,,0.00,WUHU216HW,2013-01-17 14:40:00,
2013-01-17 09:45:00,35.4,29.5,29.71,East,90,0.0,0.0,79,0.00,,,0.00,WUHU216HW,2013-01-17 14:45:00,
2013-01-17 09:50:00,35.7,29.5,29.72,East,90,0.0,0.0,78,0.00,,,0.00,WUHU216HW,2013-01-17 14:50:00,
2013-01-17 09:56:00,35.9,29.7,29.72,WNW,293,1.3,1.3,78,0.00,,,0.00,WUHU216HW,2013-01-17 14:56:00,
2013-01-17 10:01:00,36.3,29.7,29.72,WNW,293,0.0,1.3,77,0.00,,,0.00,WUHU216HW,2013-01-17 15:01:00,
2013-01-17 10:06:00,36.8,29.9,29.73,West,270,0.0,8.2,76,0.00,,,0.00,WUHU216HW,2013-01-17 15:06:00,
2013-01-17 10:11:00,37.0,30.1,29.72,SW,225,3.8,8.2,76,0.00,,,0.00,WUHU216HW,2013-01-17 15:11:00,
2013-01-17 10:16:00,37.2,30.2,29.72,WNW,293,3.5,5.5,75,0.00,,,0.00,WUHU216HW,2013-01-17 15:16:00,
2013-01-17 10:21:00,37.7,30.5,29.72,WSW,248,3.1,5.5,75,0.00,,,0.00,WUHU216HW,2013-01-17 15:21:00,
2013-01-17 10:26:00,38.1,30.8,29.72,WNW,293,4.9,5.5,75,0.00,,,0.00,WUHU216HW,2013-01-17 15:26:00,
2013-01-17 10:31:00,38.4,30.8,29.71,West,270,2.4,6.2,74,0.00,,,0.00,WUHU216HW,2013-01-17 15:31:00,
2013-01-17 10:36:00,38.6,31.0,29.72,WSW,248,1.7,6.2,74,0.00,,,0.00,WUHU216HW,2013-01-17 15:36:00,
2013-01-17 10:41:00,38.8,30.5,29.72,WSW,248,2.2,8.7,72,0.00,,,0.00,WUHU216HW,2013-01-17 15:41:00,
2013-01-17 10:46:00,38.8,30.5,29.72,WSW,248,4.9,8.7,72,0.00,,,0.00,WUHU216HW,2013-01-17 15:46:00,
2013-01-17 10:51:00,38.4,30.2,29.72,SW,225,2.9,5.8,72,0.00,,,0.00,WUHU216HW,2013-01-17 15:51:00,
2013-01-17 10:56:00,38.8,30.5,29.72,WSW,248,4.4,6.0,72,0.00,,,0.00,WUHU216HW,2013-01-17 15:56:00,
2013-01-17 11:01:00,38.8,30.5,29.72,WSW,248,0.0,10.2,72,0.00,,,0.00,WUHU216HW,2013-01-17 16:01:00,
2013-01-17 11:06:00,39.0,30.7,29.72,WNW,293,7.1,10.2,72,0.00,,,0.00,WUHU216HW,2013-01-17 16:06:00,
2013-01-17 11:11:00,39.0,30.3,29.72,WNW,293,6.7,7.8,71,0.00,,,0.00,WUHU216HW,2013-01-17 16:11:00,
2013-01-17 11:16:00,39.0,30.0,29.72,SW,225,7.3,7.8,70,0.00,,,0.00,WUHU216HW,2013-01-17 16:16:00,
2013-01-17 11:21:00,39.2,29.8,29.71,West,270,6.9,7.3,69,0.00,,,0.00,WUHU216HW,2013-01-17 16:21:00,
2013-01-17 11:27:00,39.3,30.3,29.71,West,270,0.0,6.9,70,0.00,,,0.00,WUHU216HW,2013-01-17 16:27:00,
2013-01-17 11:32:00,39.2,29.8,29.71,NW,315,6.2,7.6,69,0.00,,,0.00,WUHU216HW,2013-01-17 16:32:00,
2013-01-17 11:37:00,39.0,29.6,29.71,West,270,9.8,9.8,69,0.00,,,0.00,WUHU216HW,2013-01-17 16:37:00,
2013-01-17 11:42:00,39.0,29.6,29.72,WNW,293,7.6,9.8,69,0.00,,,0.00,WUHU216HW,2013-01-17 16:42:00,
2013-01-17 11:47:00,39.3,30.3,29.73,West,270,2.9,8.2,70,0.00,,,0.00,WUHU216HW,2013-01-17 16:47:00,
2013-01-17 11:52:00,39.7,30.7,29.72,WSW,248,6.2,8.2,70,0.00,,,0.00,WUHU216HW,2013-01-17 16:52:00,
2013-01-17 11:57:00,40.2,30.5,29.71,West,270,3.8,8.0,68,0.00,,,0.00,WUHU216HW,2013-01-17 16:57:00,
2013-01-17 12:02:00,40.8,30.6,29.71,WNW,293,4.0,8.0,67,0.00,,,0.00,WUHU216HW,2013-01-17 17:02:00,
2013-01-17 12:07:00,40.8,30.3,29.70,WNW,293,6.4,6.4,66,0.00,,,0.00,WUHU216HW,2013-01-17 17:07:00,
2013-01-17 12:12:00,40.6,30.1,29.71,WNW,293,6.9,6.9,66,0.00,,,0.00,WUHU216HW,2013-01-17 17:12:00,
2013-01-17 12:17:00,40.6,30.1,29.72,SW,225,5.3,6.9,66,0.00,,,0.00,WUHU216HW,2013-01-17 17:17:00,
2013-01-17 12:22:00,40.6,30.1,29.72,SW,225,2.9,6.9,66,0.00,,,0.00,WUHU216HW,2013-01-17 17:22:00,
2013-01-17 12:27:00,40.4,29.9,29.72,WSW,248,7.1,7.1,66,0.00,,,0.00,WUHU216HW,2013-01-17 17:27:00,
2013-01-17 12:32:00,40.2,29.2,29.72,SSE,158,2.9,7.1,65,0.00,,,0.00,WUHU216HW,2013-01-17 17:32:00,
2013-01-17 12:37:00,40.1,29.9,29.72,WNW,293,7.8,7.8,67,0.00,,,0.00,WUHU216HW,2013-01-17 17:37:00,
2013-01-17 12:42:00,40.1,29.5,29.72,WSW,248,7.3,7.8,66,0.00,,,0.00,WUHU216HW,2013-01-17 17:42:00,
2013-01-17 12:48:00,40.4,29.9,29.72,WNW,293,8.9,8.9,66,0.00,,,0.00,WUHU216HW,2013-01-17 17:48:00,
2013-01-17 12:52:00,40.2,29.3,29.72,West,270,9.6,9.6,65,0.00,,,0.00,WUHU216HW,2013-01-17 17:52:00,
2013-01-17 12:58:00,40.1,29.2,29.73,West,270,1.7,9.6,65,0.00,,,0.00,WUHU216HW,2013-01-17 17:58:00,
2013-01-17 13:03:00,39.9,29.4,29.71,WSW,248,6.0,9.6,66,0.00,,,0.00,WUHU216HW,2013-01-17 18:03:00,
2013-01-17 13:08:00,39.9,29.0,29.72,West,270,7.1,7.8,65,0.00,,,0.00,WUHU216HW,2013-01-17 18:08:00,
2013-01-17 13:13:00,40.1,29.5,29.72,West,270,4.6,7.1,66,0.00,,,0.00,WUHU216HW,2013-01-17 18:13:00,
2013-01-17 13:18:00,40.2,29.3,29.72,WNW,293,2.9,7.8,65,0.00,,,0.00,WUHU216HW,2013-01-17 18:18:00,
2013-01-17 13:23:00,40.4,29.5,29.72,West,270,7.3,7.8,65,0.00,,,0.00,WUHU216HW,2013-01-17 18:23:00,
2013-01-17 13:28:00,40.4,29.1,29.73,WNW,293,1.5,7.3,64,0.00,,,0.00,WUHU216HW,2013-01-17 18:28:00,
2013-01-17 13:33:00,40.2,28.8,29.73,WSW,248,8.2,8.2,64,0.00,,,0.00,WUHU216HW,2013-01-17 18:33:00,
2013-01-17 13:38:00,40.6,28.6,29.72,SW,225,7.1,10.5,62,0.00,,,0.00,WUHU216HW,2013-01-17 18:38:00,
2013-01-17 13:43:00,40.6,28.9,29.72,West,270,0.4,10.5,63,0.00,,,0.00,WUHU216HW,2013-01-17 18:43:00,
2013-01-17 13:48:00,40.8,28.4,29.72,NNW,338,4.6,7.1,61,0.00,,,0.00,WUHU216HW,2013-01-17 18:48:00,
2013-01-17 13:53:00,40.8,28.0,29.73,SSW,203,3.5,6.7,60,0.00,,,0.00,WUHU216HW,2013-01-17 18:53:00,
2013-01-17 13:58:00,40.8,28.0,29.73,WSW,248,2.9,5.1,60,0.00,,,0.00,WUHU216HW,2013-01-17 18:58:00,
2013-01-17 14:03:00,40.6,27.4,29.74,WSW,248,6.0,8.5,59,0.00,,,0.00,WUHU216HW,2013-01-17 19:03:00,
2013-01-17 14:08:00,40.6,27.4,29.73,WSW,248,4.6,8.5,59,0.00,,,0.00,WUHU216HW,2013-01-17 19:08:00,
2013-01-17 14:13:00,40.6,27.4,29.74,WSW,248,1.3,9.6,59,0.00,,,0.00,WUHU216HW,2013-01-17 19:13:00,
2013-01-17 14:18:00,40.6,26.9,29.75,WNW,293,1.3,9.6,58,0.00,,,0.00,WUHU216HW,2013-01-17 19:18:00,
2013-01-17 14:23:00,40.6,26.9,29.75,SW,225,6.4,6.7,58,0.00,,,0.00,WUHU216HW,2013-01-17 19:23:00,
2013-01-17 14:28:00,40.4,27.2,29.75,SW,225,5.1,8.0,59,0.00,,,0.00,WUHU216HW,2013-01-17 19:28:00,
2013-01-17 14:34:00,40.6,27.4,29.76,West,270,5.3,8.0,59,0.00,,,0.00,WUHU216HW,2013-01-17 19:34:00,
2013-01-17 14:39:00,40.6,26.9,29.76,West,270,8.7,8.7,58,0.00,,,0.00,WUHU216HW,2013-01-17 19:39:00,
2013-01-17 14:44:00,40.6,26.9,29.75,West,270,3.3,8.7,58,0.00,,,0.00,WUHU216HW,2013-01-17 19:44:00,
2013-01-17 14:49:00,40.6,26.9,29.75,WNW,293,0.0,3.5,58,0.00,,,0.00,WUHU216HW,2013-01-17 19:49:00,
2013-01-17 14:54:00,40.6,26.9,29.75,SW,225,3.5,3.5,58,0.00,,,0.00,WUHU216HW,2013-01-17 19:54:00,
2013-01-17 14:59:00,40.8,26.6,29.76,SSW,203,8.2,8.2,57,0.00,,,0.00,WUHU216HW,2013-01-17 19:59:00,
2013-01-17 15:04:00,40.6,26.5,29.76,West,270,6.7,8.2,57,0.00,,,0.00,WUHU216HW,2013-01-17 20:04:00,
2013-01-17 15:09:00,40.6,26.5,29.76,WNW,293,6.0,8.2,57,0.00,,,0.00,WUHU216HW,2013-01-17 20:09:00,
2013-01-17 15:14:00,40.2,25.7,29.76,North,0,0.6,6.0,56,0.00,,,0.00,WUHU216HW,2013-01-17 20:14:00,
2013-01-17 15:19:00,40.1,25.9,29.76,WSW,248,5.5,6.0,57,0.00,,,0.00,WUHU216HW,2013-01-17 20:19:00,
2013-01-17 15:24:00,39.7,25.6,29.77,NW,315,7.3,7.3,57,0.00,,,0.00,WUHU216HW,2013-01-17 20:24:00,
2013-01-17 15:29:00,39.5,25.8,29.77,NNE,23,6.2,7.3,58,0.00,,,0.00,WUHU216HW,2013-01-17 20:29:00,
2013-01-17 15:34:00,39.3,25.7,29.77,West,270,1.1,7.3,58,0.00,,,0.00,WUHU216HW,2013-01-17 20:34:00,
2013-01-17 15:39:00,39.0,25.8,29.77,WSW,248,0.0,6.2,59,0.00,,,0.00,WUHU216HW,2013-01-17 20:39:00,
2013-01-17 15:44:00,38.8,25.6,29.77,West,270,1.3,3.3,59,0.00,,,0.00,WUHU216HW,2013-01-17 20:44:00,
2013-01-17 15:49:00,38.4,25.3,29.77,West,270,4.2,4.2,59,0.00,,,0.00,WUHU216HW,2013-01-17 20:49:00,
2013-01-17 15:54:00,38.3,25.1,29.78,WSW,248,4.0,4.2,59,0.00,,,0.00,WUHU216HW,2013-01-17 20:54:00,
2013-01-17 15:59:00,38.3,25.1,29.77,West,270,1.7,4.0,59,0.00,,,0.00,WUHU216HW,2013-01-17 20:59:00,
2013-01-17 16:04:00,38.1,25.0,29.77,WNW,293,0.0,4.0,59,0.00,,,0.00,WUHU216HW,2013-01-17 21:04:00,
2013-01-17 16:09:00,37.9,25.2,29.78,NW,315,0.8,1.7,60,0.00,,,0.00,WUHU216HW,2013-01-17 21:09:00,
2013-01-17 16:14:00,37.7,25.1,29.77,NW,315,0.0,0.8,60,0.00,,,0.00,WUHU216HW,2013-01-17 21:14:00,
2013-01-17 16:19:00,37.5,24.9,29.78,NW,315,0.0,0.8,60,0.00,,,0.00,WUHU216HW,2013-01-17 21:19:00,
2013-01-17 16:24:00,37.2,24.9,29.78,NW,315,0.0,0.0,61,0.00,,,0.00,WUHU216HW,2013-01-17 21:24:00,
2013-01-17 16:29:00,37.2,25.3,29.78,NW,315,0.0,0.0,62,0.00,,,0.00,WUHU216HW,2013-01-17 21:29:00,
2013-01-17 16:34:00,37.0,25.2,29.78,NW,315,0.0,0.0,62,0.00,,,0.00,WUHU216HW,2013-01-17 21:34:00,
2013-01-17 16:39:00,36.6,24.8,29.78,WSW,248,2.9,4.9,62,0.00,,,0.00,WUHU216HW,2013-01-17 21:39:00,
2013-01-17 16:44:00,36.6,24.8,29.79,West,270,0.0,4.9,62,0.00,,,0.00,WUHU216HW,2013-01-17 21:44:00,
2013-01-17 16:49:00,36.5,24.7,29.80,WNW,293,0.0,2.9,62,0.00,,,0.00,WUHU216HW,2013-01-17 21:49:00,
2013-01-17 16:54:00,36.3,24.5,29.80,NW,315,7.6,7.6,62,0.00,,,0.00,WUHU216HW,2013-01-17 21:54:00,
2013-01-17 16:59:00,36.1,24.0,29.80,WNW,293,2.4,7.6,61,0.00,,,0.00,WUHU216HW,2013-01-17 21:59:00,
2013-01-17 17:04:00,36.1,24.0,29.80,West,270,5.5,7.6,61,0.00,,,0.00,WUHU216HW,2013-01-17 22:04:00,
2013-01-17 17:09:00,36.1,24.0,29.80,WNW,293,0.0,9.1,61,0.00,,,0.00,WUHU216HW,2013-01-17 22:09:00,
2013-01-17 17:14:00,35.9,23.8,29.80,West,270,0.0,9.1,61,0.00,,,0.00,WUHU216HW,2013-01-17 22:14:00,
2013-01-17 17:19:00,35.7,23.7,29.81,WSW,248,0.0,4.2,61,0.00,,,0.00,WUHU216HW,2013-01-17 22:19:00,
2013-01-17 17:24:00,35.7,23.3,29.81,West,270,3.1,4.2,60,0.00,,,0.00,WUHU216HW,2013-01-17 22:24:00,
2013-01-17 17:29:00,35.7,23.3,29.82,West,270,0.8,3.1,60,0.00,,,0.00,WUHU216HW,2013-01-17 22:29:00,
2013-01-17 17:34:00,35.6,23.5,29.82,West,270,0.0,3.1,61,0.00,,,0.00,WUHU216HW,2013-01-17 22:34:00,
2013-01-17 17:39:00,35.4,23.3,29.81,West,270,0.0,2.2,61,0.00,,,0.00,WUHU216HW,2013-01-17 22:39:00,
2013-01-17 17:44:00,35.4,23.3,29.81,West,270,0.0,0.0,61,0.00,,,0.00,WUHU216HW,2013-01-17 22:44:00,
2013-01-17 17:49:00,35.2,23.1,29.80,West,270,0.0,0.0,61,0.00,,,0.00,WUHU216HW,2013-01-17 22:49:00,
2013-01-17 17:54:00,35.2,23.1,29.81,West,270,0.4,1.1,61,0.00,,,0.00,WUHU216HW,2013-01-17 22:54:00,
2013-01-17 17:59:00,35.0,23.0,29.82,West,270,0.6,1.7,61,0.00,,,0.00,WUHU216HW,2013-01-17 22:59:00,
2013-01-17 18:04:00,34.8,22.8,29.82,West,270,5.3,5.3,61,0.00,,,0.00,WUHU216HW,2013-01-17 23:04:00,
2013-01-17 18:09:00,34.8,22.8,29.81,WSW,248,0.0,5.3,61,0.00,,,0.00,WUHU216HW,2013-01-17 23:09:00,
2013-01-17 18:14:00,34.7,22.6,29.82,WNW,293,2.6,2.6,61,0.00,,,0.00,WUHU216HW,2013-01-17 23:14:00,
2013-01-17 18:19:00,34.7,22.6,29.82,West,270,2.2,2.6,61,0.00,,,0.00,WUHU216HW,2013-01-17 23:19:00,
2013-01-17 18:24:00,34.7,22.6,29.83,West,270,1.5,6.4,61,0.00,,,0.00,WUHU216HW,2013-01-17 23:24:00,
2013-01-17 18:29:00,34.7,22.6,29.83,WNW,293,2.4,6.4,61,0.00,,,0.00,WUHU216HW,2013-01-17 23:29:00,
2013-01-17 18:34:00,34.3,22.2,29.84,West,270,0.0,2.4,61,0.00,,,0.00,WUHU216HW,2013-01-17 23:34:00,
2013-01-17 18:40:00,34.3,22.2,29.85,West,270,0.0,2.6,61,0.00,,,0.00,WUHU216HW,2013-01-17 23:40:00,
2013-01-17 18:45:00,34.3,21.9,29.84,West,270,0.0,2.6,60,0.00,,,0.00,WUHU216HW,2013-01-17 23:45:00,
2013-01-17 18:50:00,34.3,21.9,29.84,West,270,0.0,1.5,60,0.00,,,0.00,WUHU216HW,2013-01-17 23:50:00,
2013-01-17 18:55:00,34.3,21.9,29.83,West,270,0.0,1.5,60,0.00,,,0.00,WUHU216HW,2013-01-17 23:55:00,
2013-01-17 19:00:00,34.3,21.9,29.81,West,270,0.6,1.1,60,0.00,,,0.00,WUHU216HW,2013-01-18 00:00:00,
2013-01-17 19:05:00,34.3,21.9,29.82,West,270,2.0,2.0,60,0.00,,,0.00,WUHU216HW,2013-01-18 00:05:00,
2013-01-17 19:10:00,34.3,21.9,29.84,WNW,293,1.5,2.0,60,0.00,,,0.00,WUHU216HW,2013-01-18 00:10:00,
2013-01-17 19:15:00,34.1,21.7,29.83,NW,315,0.0,2.0,60,0.00,,,0.00,WUHU216HW,2013-01-18 00:15:00,
2013-01-17 19:20:00,33.9,21.5,29.84,WNW,293,0.2,3.1,60,0.00,,,0.00,WUHU216HW,2013-01-18 00:20:00,
2013-01-17 19:25:00,33.9,21.9,29.85,WNW,293,0.0,3.1,61,0.00,,,0.00,WUHU216HW,2013-01-18 00:25:00,
2013-01-17 19:30:00,33.8,21.3,29.84,West,270,3.3,5.8,60,0.00,,,0.00,WUHU216HW,2013-01-18 00:30:00,
2013-01-17 19:35:00,33.6,21.5,29.84,West,270,0.0,5.8,61,0.00,,,0.00,WUHU216HW,2013-01-18 00:35:00,
2013-01-17 19:40:00,33.6,21.5,29.85,West,270,0.0,0.0,61,0.00,,,0.00,WUHU216HW,2013-01-18 00:40:00,
2013-01-17 19:45:00,33.6,21.5,29.84,West,270,0.0,0.0,61,0.00,,,0.00,WUHU216HW,2013-01-18 00:45:00,
2013-01-17 19:50:00,33.4,21.7,29.84,West,270,0.0,0.0,62,0.00,,,0.00,WUHU216HW,2013-01-18 00:50:00,
2013-01-17 19:55:00,33.4,21.7,29.84,West,270,1.7,1.7,62,0.00,,,0.00,WUHU216HW,2013-01-18 00:55:00,
2013-01-17 20:00:00,33.2,21.6,29.85,West,270,0.2,1.7,62,0.00,,,0.00,WUHU216HW,2013-01-18 01:00:00,
2013-01-17 20:05:00,33.0,21.4,29.84,West,270,0.0,0.2,62,0.00,,,0.00,WUHU216HW,2013-01-18 01:05:00,
2013-01-17 20:10:00,32.9,21.2,29.85,WSW,248,0.2,0.2,62,0.00,,,0.00,WUHU216HW,2013-01-18 01:10:00,
2013-01-17 20:15:00,32.9,21.2,29.84,West,270,1.1,1.1,62,0.00,,,0.00,WUHU216HW,2013-01-18 01:15:00,
2013-01-17 20:20:00,32.7,20.7,29.84,SW,225,0.0,3.3,61,0.00,,,0.00,WUHU216HW,2013-01-18 01:20:00,
2013-01-17 20:25:00,32.7,20.7,29.85,SW,225,3.3,3.3,61,0.00,,,0.00,WUHU216HW,2013-01-18 01:25:00,
2013-01-17 20:30:00,32.5,20.6,29.84,WSW,248,0.0,3.3,61,0.00,,,0.00,WUHU216HW,2013-01-18 01:30:00,
2013-01-17 20:35:00,32.5,20.6,29.83,South,180,6.0,6.0,61,0.00,,,0.00,WUHU216HW,2013-01-18 01:35:00,
2013-01-17 20:40:00,32.3,20.0,29.84,WNW,293,2.4,6.0,60,0.00,,,0.00,WUHU216HW,2013-01-18 01:40:00,
2013-01-17 20:45:00,32.1,19.9,29.83,SSE,158,2.0,6.0,60,0.00,,,0.00,WUHU216HW,2013-01-18 01:45:00,
2013-01-17 20:50:00,32.1,19.4,29.83,NNW,338,1.7,4.6,59,0.00,,,0.00,WUHU216HW,2013-01-18 01:50:00,
2013-01-17 20:55:00,31.8,19.1,29.83,NW,315,1.5,4.6,59,0.00,,,0.00,WUHU216HW,2013-01-18 01:55:00,
2013-01-17 21:00:00,31.8,19.1,29.83,WNW,293,0.0,1.5,59,0.00,,,0.00,WUHU216HW,2013-01-18 02:00:00,
2013-01-17 21:05:00,31.8,19.1,29.84,West,270,0.0,1.7,59,0.00,,,0.00,WUHU216HW,2013-01-18 02:05:00,
2013-01-17 21:10:00,31.6,18.5,29.84,SSW,203,0.0,1.7,58,0.00,,,0.00,WUHU216HW,2013-01-18 02:10:00,
2013-01-17 21:15:00,31.6,18.5,29.84,SW,225,1.3,1.3,58,0.00,,,0.00,WUHU216HW,2013-01-18 02:15:00,
2013-01-17 21:21:00,31.6,18.5,29.84,West,270,1.5,1.5,58,0.00,,,0.00,WUHU216HW,2013-01-18 02:21:00,
2013-01-17 21:26:00,31.2,18.1,29.84,WNW,293,0.0,3.3,58,0.00,,,0.00,WUHU216HW,2013-01-18 02:26:00,
2013-01-17 21:31:00,31.2,18.1,29.85,WSW,248,2.4,3.3,58,0.00,,,0.00,WUHU216HW,2013-01-18 02:31:00,
2013-01-17 21:36:00,31.2,18.1,29.84,WSW,248,2.4,2.4,58,0.00,,,0.00,WUHU216HW,2013-01-18 02:36:00,
2013-01-17 21:41:00,31.1,18.0,29.84,North,0,0.0,2.4,58,0.00,,,0.00,WUHU216HW,2013-01-18 02:41:00,
2013-01-17 21:46:00,31.1,18.0,29.84,WSW,248,0.0,2.0,58,0.00,,,0.00,WUHU216HW,2013-01-18 02:46:00,
2013-01-17 21:51:00,30.9,17.8,29.82,SSE,158,2.0,2.0,58,0.00,,,0.00,WUHU216HW,2013-01-18 02:51:00,
2013-01-17 21:56:00,30.9,17.8,29.82,SSW,203,0.0,2.0,58,0.00,,,0.00,WUHU216HW,2013-01-18 02:56:00,
2013-01-17 22:01:00,30.7,17.6,29.83,WNW,293,0.0,0.0,58,0.00,,,0.00,WUHU216HW,2013-01-18 03:01:00,
2013-01-17 22:06:00,30.7,17.6,29.83,WNW,293,0.0,0.4,58,0.00,,,0.00,WUHU216HW,2013-01-18 03:06:00,
2013-01-17 22:11:00,30.7,18.0,29.83,WSW,248,0.0,0.4,59,0.00,,,0.00,WUHU216HW,2013-01-18 03:11:00,
2013-01-17 22:16:00,30.5,17.8,29.83,WSW,248,0.0,2.0,59,0.00,,,0.00,WUHU216HW,2013-01-18 03:16:00,
2013-01-17 22:21:00,30.5,17.8,29.84,WSW,248,0.0,2.0,59,0.00,,,0.00,WUHU216HW,2013-01-18 03:21:00,
2013-01-17 22:26:00,30.3,17.2,29.83,West,270,4.4,4.4,58,0.00,,,0.00,WUHU216HW,2013-01-18 03:26:00,
2013-01-17 22:31:00,30.3,16.8,29.84,WSW,248,0.0,4.6,57,0.00,,,0.00,WUHU216HW,2013-01-18 03:31:00,
2013-01-17 22:36:00,30.2,16.7,29.84,WNW,293,0.0,4.6,57,0.00,,,0.00,WUHU216HW,2013-01-18 03:36:00,
2013-01-17 22:41:00,30.0,16.1,29.84,West,270,0.0,1.1,56,0.00,,,0.00,WUHU216HW,2013-01-18 03:41:00,
2013-01-17 22:46:00,30.0,16.1,29.84,West,270,0.0,1.1,56,0.00,,,0.00,WUHU216HW,2013-01-18 03:46:00,
2013-01-17 22:51:00,29.8,15.9,29.83,West,270,0.0,0.0,56,0.00,,,0.00,WUHU216HW,2013-01-18 03:51:00,
2013-01-17 22:56:00,29.8,15.9,29.83,West,270,0.0,0.0,56,0.00,,,0.00,WUHU216HW,2013-01-18 03:56:00,
2013-01-17 23:01:00,29.8,15.9,29.81,West,270,0.0,0.0,56,0.00,,,0.00,WUHU216HW,2013-01-18 04:01:00,
2013-01-17 23:06:00,29.6,15.8,29.81,West,270,0.0,0.0,56,0.00,,,0.00,WUHU216HW,2013-01-18 04:06:00,
2013-01-17 23:11:00,29.6,16.2,29.80,West,270,0.0,0.0,57,0.00,,,0.00,WUHU216HW,2013-01-18 04:11:00,
2013-01-17 23:16:00,29.4,16.0,29.79,West,270,0.0,0.0,57,0.00,,,0.00,WUHU216HW,2013-01-18 04:16:00,
2013-01-17 23:22:00,29.4,16.0,29.80,West,270,0.0,0.0,57,0.00,,,0.00,WUHU216HW,2013-01-18 04:22:00,
2013-01-17 23:27:00,29.3,16.3,29.80,West,270,0.0,0.8,58,0.00,,,0.00,WUHU216HW,2013-01-18 04:27:00,
2013-01-17 23:32:00,29.3,16.3,29.78,NNW,338,1.3,1.3,58,0.00,,,0.00,WUHU216HW,2013-01-18 04:32:00,
2013-01-17 23:37:00,29.1,16.1,29.79,NNW,338,0.0,1.3,58,0.00,,,0.00,WUHU216HW,2013-01-18 04:37:00,
2013-01-17 23:42:00,29.1,16.1,29.81,NW,315,1.3,1.3,58,0.00,,,0.00,WUHU216HW,2013-01-18 04:42:00,
2013-01-17 23:47:00,28.9,15.9,29.81,NNW,338,0.0,1.3,58,0.00,,,0.00,WUHU216HW,2013-01-18 04:47:00,
2013-01-17 23:52:00,28.7,15.4,29.81,NNW,338,0.0,1.1,57,0.00,,,0.00,WUHU216HW,2013-01-18 04:52:00,
2013-01-17 23:57:00,28.7,15.8,29.82,NNW,338,0.0,1.1,58,0.00,,,0.00,WUHU216HW,2013-01-18 04:57:00,